Retour au catalogue

METEOR 2-11 DEB

ActifPO
NORAD 60003·DEBRIS·🇷🇺 Russia

Lancé Jul 5, 1984 depuis Plesetsk Cosmodrome

Loading…

Prochains Passages (prochaines 24 heures)

TLE

PériméSource: Space-Track

Époque: Aug 20, 2026, 12:47 UTC

1 60003U 84072Y   26232.53323686  .00000596  00000-0  41193-3 0  9992
2 60003  82.5283 322.5907 0024379 153.9131 206.3271 13.97551156475319

Suivez METEOR 2-11 DEB en temps réel avec AllMySat

Download on the App Store